THORAD DELTA 1 DEB, 8175

Orbit data source: Space-Track

THORAD DELTA 1 DEB, 8175 is space debris in SSO originally from a launch on Fri, 15 Nov 1974 UTC launched from the Air Force Western Test Range (AFWTR). Debris objects in space refer to the collection of defunct objects orbiting the Earth. Examples of debris include non-operational satellites, rocket bodies, and fragments generated from explosions, collisions, or faulty payload assembly.

Loading next visibility...
Identifier
8175, 1974-089AR
Orbit
SSO
Country
Flag of USUS
Related business
Manufacturer
Unknown
Mission
Spacecraft
Bus & Motor
Unknown
Mass
Unknown
Launch date (UTC)
1974-11-15 (51 years ago)
Launch vehicle
Unknown
Launch site
Air Force Western Test Range (AFWTR)
Object type
Payload
Rocket body
Debris
Shape & HBR
Unknown shape, 0.1 m
Radar Cross Section
Small (<0.1 m²)

Expand to show TLE details & history
Last TLE update: 2 days ago

TLE from 2 days ago
0 THORAD DELTA 1 DEB
1 08175U 74089AR  26035.31573506  .00002790  00000-0  13733-1 0  9991
2 08175 102.6284 327.4244 0201796 284.0671 229.5978 12.67111230312647
Epoch: 2026-02-04T07:34Z
TLE epoch observation values (Epoch: 2026-02-04T07:34:39.509Z)
Latitude
27.36954°
Longitude
-94.09654°
Altitude
1,500.234 km
Speed
7.069 km/s
True Right ascension
10h 16m 12s
True Declination
27° 14' 33"
Sunlit
Object was in full shadow at epoch
Visualization orbit readout
Latitude
Unknown
Longitude
Unknown
Altitude
Unknown
Speed
Unknown
Apparent Right ascension
Unknown
Apparent Declination
Unknown
Sunlit
N/A
Visualization observer readout
Local Sidereal Time
22:09:10
Azimuth
Unknown
Elevation
Unknown
Doppler factor
Unknown
Orbital elements
Apogee altitude
1,548.091 km
Perigee altitude
1,234.522 km
Semi-major axis
7,769.444 km
Eccentricity
0.02018
Inclination
102.6284°
RAAN
327.4244°
Arg. of periapsis
284.0671°
True anomaly
227.86548°
Mean anomaly
229.5978°
Eccentric anomaly
228.7288°
Mean motion
3.16926 °/min
Orbital period
113.59 mins
BSTAR
0.013733
Loading maneuver chart data...
Computing Atmospheric mass density...
Loading historical data...
Loading historical data...
Loading historical data...
Loading historical data...
Loading historical data...
Loading historical data...
Loading historical data...

Documentation

Showing up to 5 results
|